FENGYUN 1C DEB, 30705

Orbit data source: Space-Track

FENGYUN 1C DEB, 30705 is space debris in SSO originally from a launch on Mon, 10 May 1999 UTC launched from the Taiyaun Space Center, China (TSC). Fengyun 1C debris stems from the Chinese weather satellite Fengyun-1C, which was intentionally destroyed by a Chinese anti-satellite missile in 2007. This event dramatically increased the amount of space debris, with thousands of trackable fragments posing hazards to satellites and human spaceflight. The Fengyun 1C debris cloud has become a focal point in discussions about space sustainability and the need for international regulations to prevent the creation of new debris.

Loading next visibility...
Identifier
30705, 1999-025ARP
Orbit
SSO
Country
Flag of CNCN / PRC
Related business
Manufacturer
Unknown
Mission
Spacecraft
Bus & Motor
Unknown
Mass
Unknown
Launch date (UTC)
1999-05-10 (27 years ago)
Launch vehicle
Unknown
Launch site
Taiyaun Space Center, China (TSC)
Object type
Payload
Rocket body
Debris
Shape & HBR
Unknown shape, 0.1 m
Radar Cross Section
Medium (>0.1 m² and <1 m²)

Expand to show TLE details & history
Last TLE update: 2 days ago

TLE from 2 days ago
0 FENGYUN 1C DEB
1 30705U 99025ARP 26174.24867269  .00001775  00000-0  14651-2 0  9993
2 30705 102.1900 338.9985 0199059 185.1359 353.7108 13.82332332966682
Epoch: 2026-06-23T05:58Z
TLE epoch observation values (Epoch: 2026-06-23T05:58:05.320Z)
Latitude
1.2724°
Longitude
158.32683°
Altitude
813.107 km
Speed
7.52 km/s
True Right ascension
10h 37m 05s
True Declination
1° 15' 53"
Sunlit
Object was in daylight at epoch
Visualization orbit readout
Latitude
Unknown
Longitude
Unknown
Altitude
Unknown
Speed
Unknown
Apparent Right ascension
Unknown
Apparent Declination
Unknown
Sunlit
N/A
Visualization observer readout
Local Sidereal Time
05:11:19
Azimuth
Unknown
Elevation
Unknown
Doppler factor
Unknown
Orbital elements
Apogee altitude
1,098.962 km
Perigee altitude
807.095 km
Semi-major axis
7,331.165 km
Eccentricity
0.01991
Inclination
102.19°
RAAN
338.9985°
Arg. of periapsis
185.1359°
True anomaly
353.45459°
Mean anomaly
353.7108°
Eccentric anomaly
353.58334°
Mean motion
3.45767 °/min
Orbital period
104.12 mins
BSTAR
0.0014651
Loading maneuver chart data...
Computing Atmospheric mass density...

Documentation

Showing up to 5 results
|